Weather History for KEPH - June, 2014

Change the Weather History Date:

Monday, June 2, 2014

  Actual Average Record
Temperature  
Mean Temperature 73 °F 64 °F  
Max Temperature 88 °F 77 °F 99 °F (1986)
Min Temperature 58 °F 51 °F 38 °F (1976)
Degree Days  
Heating Degree Days 0 3  
Month to date heating degree days 0 7  
Since 1 June heating degree days 0 7  
Since 1 July heating degree days 5735 5916  
Cooling Degree Days 8 2  
Month to date cooling degree days 17 4  
Year to date cooling degree days 61 41  
Since 1 June cooling degree days 17 4  
Growing Degree Days 23 (Base 50)    
Moisture  
Dew Point 38 °F    
Average Humidity 33    
Maximum Humidity 53    
Minimum Humidity 12    
Precipitation  
Precipitation 0.00 in 0.02 in 0.44 in (1971)
Month to date precipitation 0.00 0.05  
Year to date precipitation 2.80 3.51  
Sea Level Pressure  
Sea Level Pressure 29.78 in    
Wind  
Wind Speed 9 mph (NNW)    
Max Wind Speed 31 mph    
Max Gust Speed 38 mph    
Visibility 10 miles    
Events      
T = Trace of Precipitation, MM = Missing Value Source: NWS Daily Summary

Daily Weather History Graph

Daily Weather History Graph

Search for Another Location

Airport or City:

Trip Planner

Search our weather history database for the weather conditions in past years. The results will help you decide how hot, cold, wet, or windy it might be!

Date:

Astronomy

Jun. 02, 2014 Rise Set
Actual Time 5:05 AM PDT 8:47 PM PDT
Civil Twilight 4:25 AM PDT 9:26 PM PDT
Nautical Twilight 3:33 AM PDT 10:19 PM PDT
Astronomical Twilight 2:19 AM PDT 11:34 PM PDT
Moon 9:48 AM PDT (6/2) No Moon Set
Length of Visible Light 17h 00m
Length of Day
15h 42m
Waxing Crescent, 22% of the Moon is Illuminated
Jun 2
Waxing Crescent
Jun 5
First Quarter
Jun 12
Full
Jun 19
Last Quarter
Jun 27
New

Hourly Weather History & Observations

Time (PDT) Temp. Dew Point Humidity Pressure Visibility Wind Dir Wind Speed Gust Speed Precip Events Conditions
12:53 AM 66.0 °F 39.9 °F 38% 29.86 in 10.0 mi NNW 9.2 mph - N/A   Clear
1:53 AM 63.0 °F 41.0 °F 45% 29.86 in 10.0 mi NNW 9.2 mph - N/A   Clear
2:53 AM 61.0 °F 41.0 °F 48% 29.86 in 10.0 mi NNW 6.9 mph - N/A   Clear
3:53 AM 63.0 °F 42.1 °F 46% 29.86 in 10.0 mi North 9.2 mph - N/A   Clear
4:53 AM 59.0 °F 42.1 °F 53% 29.86 in 10.0 mi North 10.4 mph - N/A   Clear
5:53 AM 61.0 °F 42.1 °F 50% 29.86 in 10.0 mi NNE 8.1 mph - N/A   Clear
6:53 AM 66.0 °F 43.0 °F 43% 29.86 in 10.0 mi North 8.1 mph - N/A   Clear
7:53 AM 71.1 °F 44.1 °F 38% 29.85 in 10.0 mi North 10.4 mph - N/A   Clear
8:53 AM 73.9 °F 43.0 °F 33% 29.85 in 10.0 mi NE 10.4 mph - N/A   Clear
11:53 AM 82.9 °F 37.9 °F 20% 29.80 in 10.0 mi NW 6.9 mph - N/A   Clear
12:53 PM 84.0 °F 36.0 °F 18% 29.78 in 10.0 mi Variable 3.5 mph - N/A   Mostly Cloudy
1:53 PM 86.0 °F 36.0 °F 17% 29.75 in 10.0 mi North - - N/A   Partly Cloudy
2:53 PM 87.1 °F 28.9 °F 12% 29.74 in 10.0 mi South 11.5 mph - N/A   Clear
3:53 PM 86.0 °F 30.9 °F 14% 29.72 in 10.0 mi SSW 10.4 mph 20.7 mph N/A   Clear
4:53 PM 86.0 °F 32.0 °F 14% 29.70 in 10.0 mi South 5.8 mph - N/A   Clear
5:53 PM 86.0 °F 30.9 °F 14% 29.68 in 10.0 mi SSW 6.9 mph - N/A   Clear
6:53 PM 82.9 °F 34.0 °F 17% 29.68 in 10.0 mi South 4.6 mph - N/A   Clear
7:53 PM 80.1 °F 36.0 °F 20% 29.68 in 10.0 mi SW 5.8 mph - N/A   Partly Cloudy
8:53 PM 78.1 °F 37.9 °F 24% 29.69 in 10.0 mi NW 20.7 mph 34.5 mph N/A   Partly Cloudy
9:53 PM 73.0 °F 43.0 °F 34% 29.71 in 10.0 mi NNW 13.8 mph 25.3 mph N/A   Partly Cloudy
10:53 PM 73.0 °F 42.1 °F 33% 29.72 in 10.0 mi North 10.4 mph - N/A   Partly Cloudy
11:53 PM 71.1 °F 42.1 °F 35% 29.72 in 10.0 mi WNW 10.4 mph - N/A   Partly Cloudy